Theta_e
339 341 341 340 338 336 335 336 336 334 333 332 330 328 326 325 322 321 316 314 313 311 309 308 307 306 306 306 306 307 306 307
322 339 341 341 337 335 334 334 334 333 331 329 327 324 322 319 317 316 315 313 311 309 308 307 307 306 307 307 306 306 306 306
321 330 340 340 337 335 332 332 333 332 330 327 324 320 318 317 315 315 314 312 310 309 308 307 306 306 306 305 306 306 306 305
319 327 340 340 338 335 333 332 331 330 328 323 321 317 316 314 313 313 312 311 310 308 308 307 305 305 306 305 305 305 304 305
318 319 337 339 338 336 334 332 328 327 323 320 317 315 314 313 312 311 311 310 309 308 307 306 305 305 305 305 304 304 304 304
314 316 318 337 336 336 333 330 326 325 320 319 316 315 314 312 311 310 310 309 308 307 306 305 305 306 305 305 305 304 303 303
312 314 316 332 336 334 331 329 326 323 320 318 316 315 313 311 310 309 309 308 307 306 305 305 304 305 305 304 304 304 303 302
312 313 314 315 323 332 330 328 326 324 321 319 317 315 313 311 310 309 308 307 306 305 305 304 304 304 304 304 303 302 301 302
310 313 312 314 314 326 329 328 325 324 323 322 319 316 314 311 310 309 308 307 306 305 304 303 303 302 302 301 300 299 299 298
309 308 312 313 313 314 324 326 324 323 322 320 319 316 314 311 310 309 308 307 305 304 303 303 302 301 300 299 297 297 297 296
308 309 308 310 312 313 314 316 323 321 321 321 319 317 314 313 312 309 308 306 305 304 303 302 301 299 298 297 296 296 296 295
306 310 309 308 310 312 312 312 314 317 321 320 318 316 316 314 313 310 308 306 304 303 302 301 300 299 298 297 295 294 294 294
305 306 307 308 309 312 312 312 311 312 315 318 317 317 315 312 312 311 308 306 304 303 301 301 299 298 297 296 294 294 293 292
305 306 306 306 307 311 311 312 311 311 311 312 315 315 315 314 312 311 308 305 303 302 301 299 297 296 295 294 294 293 291 291
305 305 305 305 307 308 311 311 312 311 310 310 311 315 314 312 311 310 307 304 303 300 299 297 296 296 294 293 292 292 290 290
305 305 304 304 305 308 308 309 312 311 310 310 310 313 313 312 310 307 305 303 301 299 298 296 295 293 292 291 290 290 289 288
307 307 306 306 307 308 309 311 312 312 311 311 310 310 312 311 308 305 303 300 299 297 296 294 293 291 290 290 289 288 287 287
305 306 305 306 307 307 307 308 310 311 311 310 310 310 311 308 306 304 300 298 297 295 294 293 291 289 289 289 288 287 286 286
300 301 304 306 306 307 307 306 309 308 309 310 310 310 309 307 304 301 298 296 295 293 292 291 289 288 288 288 287 286 285 285
Wind_Speed
30 38 39 41 44 45 44 48 43 41 36 34 34 33 34 36 36 35 37 32 34 31 31 29 28 25 25 23 22 22 21 22
21 37 39 38 38 40 43 41 39 40 36 33 34 33 35 34 35 36 39 35 35 33 33 32 28 28 28 27 24 24 23 25
10 20 35 41 44 43 40 42 43 43 41 35 31 29 33 34 34 35 36 36 35 34 34 34 31 29 28 29 30 25 23 29
6 9 32 40 38 44 47 47 47 44 38 33 28 26 26 27 33 35 36 37 36 34 33 34 33 31 32 31 31 30 28 26
12 12 14 32 38 43 41 42 44 43 41 36 39 33 26 24 33 34 34 34 36 33 32 33 34 32 33 31 29 31 31 27
17 18 19 23 27 35 35 37 38 38 42 38 37 32 29 31 30 32 34 32 33 35 28 31 33 30 32 31 29 26 27 26
17 23 34 8 17 30 32 35 34 35 37 38 35 33 32 28 28 30 31 32 31 32 27 28 30 28 28 30 30 25 21 22
14 18 17 27 26 14 23 26 28 32 31 29 30 33 35 32 34 33 34 32 32 33 28 27 29 26 26 27 27 23 20 19
20 12 13 22 26 11 15 18 27 27 29 30 30 32 33 30 32 27 29 30 31 34 30 27 23 20 22 20 19 17 16 18
20 23 18 16 15 22 9 15 25 29 30 27 24 28 30 28 28 29 32 31 32 33 29 26 23 21 19 16 15 14 13 13
19 18 27 28 11 12 13 14 4 21 27 30 30 29 27 28 26 31 33 33 33 34 33 30 26 25 23 22 19 16 14 14
8 4 1 26 35 8 6 5 5 5 18 23 21 24 29 32 32 30 35 36 37 39 38 37 36 31 27 26 23 22 22 20
9 10 12 12 3 22 23 10 6 3 5 17 24 28 29 28 30 33 34 36 37 37 39 38 36 35 34 32 31 29 25 25
9 9 8 10 12 11 14 19 15 8 5 7 18 29 31 33 34 32 31 34 37 36 37 36 36 35 33 34 33 29 28 25
9 9 9 13 19 17 21 24 25 17 14 14 15 26 33 30 32 33 34 36 37 35 36 36 36 36 33 32 33 30 31 27
10 7 9 15 16 18 16 25 26 22 18 16 18 24 31 33 31 31 33 36 37 38 36 32 32 32 33 35 32 33 30 27
6 7 10 9 16 14 5 8 10 24 26 24 24 21 29 32 32 32 33 35 36 37 37 37 35 29 33 35 33 31 28 26
10 7 6 8 15 20 22 16 9 7 16 28 30 25 28 31 33 34 35 36 37 36 35 36 34 28 33 32 31 29 27 25
9 8 10 13 15 18 25 29 6 9 11 10 22 27 27 32 35 36 35 34 33 32 32 34 32 32 32 32 31 28 23 21
Wind_Direction
207 201 193 183 181 183 184 189 197 197 195 194 195 190 193 197 197 200 197 194 195 193 188 188 193 190 178 177 179 179 174 163
203 196 189 180 177 178 184 184 187 190 190 188 188 192 190 192 197 199 201 197 195 192 192 188 192 185 183 183 174 176 166 166
246 179 176 181 180 182 183 184 181 186 189 190 187 189 187 195 196 199 203 203 197 194 196 194 192 188 188 187 184 167 175 169
323 198 176 185 179 181 184 186 182 183 185 178 184 188 186 190 194 200 202 205 201 199 199 198 192 192 191 191 189 181 166 174
1 4 194 185 184 184 183 180 180 177 180 178 175 178 189 198 193 197 199 206 203 202 202 201 195 195 196 195 193 192 186 179
6 5 347 207 174 177 178 175 178 178 176 179 179 183 191 194 192 193 197 203 205 205 205 201 198 198 198 195 190 192 197 198
9 11 18 349 167 169 174 174 176 178 179 179 179 184 184 179 184 183 191 198 203 206 204 203 202 200 201 196 197 194 191 201
31 12 21 21 4 160 164 166 173 176 181 183 186 185 186 181 182 183 187 191 198 204 205 200 198 198 196 197 196 196 190 184
5 17 24 20 11 4 153 174 166 179 185 190 192 191 188 182 183 181 185 191 197 203 202 198 197 192 189 192 196 187 183 172
353 357 352 24 30 4 24 183 176 179 184 188 194 192 185 181 184 190 194 195 195 198 195 190 189 185 188 184 183 176 172 157
342 345 343 336 358 14 29 32 195 183 193 195 199 199 198 196 195 193 195 195 192 193 191 193 190 183 180 178 175 178 177 166
295 219 9 337 330 355 10 19 19 51 210 210 206 210 213 207 206 206 204 198 194 195 193 187 183 188 190 191 185 186 192 185
275 291 260 220 310 331 325 321 295 192 141 213 209 217 217 205 204 209 205 196 192 187 184 186 191 192 193 189 183 190 191 179
264 269 269 272 284 251 240 274 277 268 214 214 214 210 217 216 211 210 208 192 189 184 187 185 184 184 184 188 190 186 185 180
231 264 272 252 238 233 252 247 240 235 228 216 204 212 210 212 214 211 202 196 186 179 181 182 184 189 185 187 187 188 184 178
239 257 270 276 268 241 273 256 241 227 225 235 232 211 208 206 205 199 195 189 180 179 177 178 183 182 183 184 186 181 176 172
6 11 6 354 345 324 295 201 229 243 226 226 237 222 204 200 194 190 189 181 177 175 176 177 176 173 181 185 181 175 175 178
355 340 325 345 349 343 333 326 319 219 236 230 227 221 200 191 189 187 182 178 175 173 171 172 169 172 181 181 179 183 184 182
338 318 310 321 323 316 322 321 330 346 339 323 243 216 188 184 184 179 173 172 171 169 167 167 163 170 176 181 187 187 179 187